ABS-3A

Last updated on Aug. 8, 2020, 5:32 a.m. UTC

1 40424U 15010A   20220.73582573 -.00000035  00000-0  00000+0 0  9995
2 40424   0.0181  76.5425 0002219 339.3406 162.7048  1.00272241 19947
UTC
Height (km)
Latitude
Longitude
Inclination
Orbital Period
UTC large
Height (km)
Speed (km/s)
/
Latitude / Longitude
Inclination (degrees)
Orbital Period (minutes)
Azimuth
Elevation
Range (km)
Doppler Factor
iOS Compass Heading
iOS Angle

Next 30 passes for location: Hong Kong

Rise time Rise Azimuth (degrees) Set time Set Azimuth (degrees) Duration Max altitude (degrees)

No matching passes for this satellites